Wind_Speed
30 34 33 30 32 32 34 38 41 40 37 35 33 35 35 35 35 36 34 31 26 25 24 24 25 27 26 25 24 23 24 24
29 32 34 29 29 31 35 36 40 40 35 32 32 36 36 36 36 36 35 31 29 27 25 25 26 28 26 26 25 26 24 25
19 27 32 35 33 32 35 36 40 42 34 33 26 33 37 39 38 37 34 32 30 28 28 28 30 28 30 31 31 28 19 28
21 21 32 35 36 40 41 38 39 42 35 32 27 28 31 36 40 39 37 34 31 30 30 29 30 31 36 37 35 33 25 30
20 24 27 36 41 38 37 40 38 41 41 35 34 33 29 30 30 40 40 37 35 32 31 31 31 33 36 40 38 34 32 31
23 24 32 43 39 41 41 40 39 39 43 41 36 31 29 30 32 38 39 37 34 33 33 34 34 36 36 41 39 36 33 33
22 26 34 36 37 36 36 37 37 37 41 41 41 35 30 30 30 34 39 38 36 34 35 36 37 39 39 41 40 39 37 33
20 22 22 29 34 37 38 37 39 41 42 41 42 40 37 36 34 34 32 35 40 39 37 37 37 40 41 41 41 40 39 37
22 24 24 31 37 40 41 42 40 41 42 43 41 39 38 40 40 38 39 38 39 42 40 38 38 40 41 40 40 40 40 39
23 24 24 31 36 41 45 45 45 43 46 43 42 40 39 39 38 40 41 41 44 41 39 41 40 40 40 38 39 40 39 39
10 19 19 30 38 43 45 45 49 50 47 47 47 45 42 37 44 45 43 45 44 44 42 40 41 39 38 37 39 38 37 35
8 5 14 25 28 31 38 40 41 41 43 44 41 37 39 36 36 42 44 43 41 42 44 43 43 41 39 36 35 34 32 29
11 6 3 10 20 25 28 31 35 38 40 39 37 36 38 34 35 39 40 40 40 41 43 44 45 43 39 36 35 33 30 27
13 14 9 7 8 14 20 25 27 28 27 28 27 30 33 36 36 34 35 35 32 33 37 40 43 41 39 38 35 32 29 26
16 16 13 8 12 12 15 19 26 29 32 29 27 29 33 35 32 30 30 31 28 24 23 25 29 30 32 33 32 29 26 23
16 16 15 14 14 12 15 17 21 24 26 28 26 27 33 33 29 26 26 26 21 20 20 20 24 27 27 28 27 26 25 21
17 18 17 16 19 18 16 11 18 25 24 24 28 28 30 32 31 28 28 26 23 23 19 19 21 28 31 30 27 22 23 20
20 18 15 18 21 22 22 18 16 16 19 19 21 28 27 30 30 25 21 20 21 21 20 20 22 25 26 27 24 22 20 18
19 15 22 23 23 27 24 26 24 23 19 15 19 17 19 23 21 18 18 18 19 19 18 18 20 24 28 22 22 20 16 17
Wind_Direction
193 190 188 191 189 189 187 188 196 197 198 198 199 198 196 195 196 194 193 193 194 194 190 184 180 177 175 172 165 161 156 147
194 191 185 187 190 187 188 186 194 193 193 192 197 198 198 197 199 200 199 199 197 200 196 189 189 186 187 180 167 162 149 152
195 186 183 185 188 190 190 190 191 192 192 195 194 196 201 199 199 204 205 207 206 205 200 199 197 198 192 185 177 161 158 162
191 187 185 186 188 192 189 190 192 189 189 193 195 194 201 202 204 206 209 211 215 211 208 209 209 212 199 192 187 180 167 177
192 189 189 189 196 193 192 189 192 189 186 188 192 191 195 202 202 209 211 214 216 214 216 217 219 211 203 198 196 195 187 179
198 194 195 195 190 192 193 189 190 188 186 188 191 196 201 197 200 211 215 216 217 217 221 225 219 210 207 202 200 200 200 191
202 199 195 198 193 189 190 191 193 191 187 191 192 193 194 194 198 206 213 216 215 217 223 222 217 212 211 208 209 208 207 208
205 197 194 198 192 187 186 188 193 192 193 196 196 194 193 197 197 201 203 210 215 216 218 217 216 212 213 211 211 214 214 215
203 198 198 194 193 188 185 188 192 194 195 198 199 201 198 199 204 202 207 208 213 217 217 219 220 216 215 215 217 220 219 222
211 201 198 196 191 192 190 189 193 193 196 196 200 200 202 201 203 207 209 211 215 217 218 218 219 218 218 218 220 222 223 226
240 206 200 197 195 194 194 191 191 193 194 195 198 200 198 199 201 207 210 215 218 217 217 217 215 216 217 219 223 226 225 228
333 292 199 192 196 197 195 194 193 192 193 195 196 197 195 200 197 205 213 217 217 217 217 216 217 218 220 220 223 222 219 220
357 31 59 161 178 184 191 195 192 196 193 191 190 190 192 193 201 210 215 219 221 221 221 221 221 221 221 220 221 219 215 215
24 33 51 52 90 158 172 184 187 188 187 188 179 180 188 195 204 209 214 215 219 219 223 223 224 223 222 221 220 218 215 214
32 33 37 48 69 92 138 164 179 177 177 175 173 178 186 195 199 202 205 209 210 215 225 230 230 230 226 219 214 211 207 204
23 28 33 34 47 82 118 134 156 163 165 174 180 182 190 188 189 195 201 207 207 218 223 244 241 238 232 218 209 202 199 197
25 30 30 26 37 36 40 91 138 166 173 173 171 173 185 189 191 190 194 202 214 217 213 217 233 233 225 216 204 197 203 201
24 29 26 24 23 34 34 37 81 106 122 130 150 170 169 177 185 187 192 200 202 206 211 217 221 221 225 205 196 204 196 190
17 17 16 27 30 39 43 41 45 56 64 98 147 159 176 178 180 188 195 202 201 201 204 210 219 215 208 199 197 191 198 187
Height
703 711 719 728 734 739 744 747 754 759 765 772 777 781 785 789 794 798 803 807 812 817 821 825 828 832 835 838 841 846 849 853
699 706 714 725 732 737 740 743 749 756 761 768 774 776 783 787 792 797 801 805 809 814 819 823 826 830 832 836 841 844 850 853
696 702 709 715 723 732 736 740 744 749 758 765 771 774 780 784 789 795 799 803 807 811 815 819 822 826 830 833 836 843 849 852
689 695 700 708 713 719 724 732 739 743 752 763 770 774 779 782 784 789 794 799 804 807 812 815 819 821 824 828 832 836 841 849
679 684 692 697 702 713 720 726 733 739 744 756 761 763 767 772 778 784 789 793 798 803 808 811 815 818 822 825 829 832 835 842
670 675 681 684 697 703 711 719 727 734 737 746 754 760 764 769 774 778 783 789 794 800 804 807 811 814 818 822 826 830 833 837
660 665 674 681 689 698 708 717 724 731 733 741 745 751 759 764 767 772 777 784 789 794 798 801 805 809 813 817 822 825 829 833
653 660 666 675 682 689 700 709 716 722 728 735 738 743 750 757 761 767 772 777 781 787 792 797 801 804 809 813 817 821 825 829
644 649 655 661 671 679 687 696 706 714 721 726 733 740 743 748 755 760 765 770 776 782 788 792 796 800 805 809 813 817 821 825
636 639 647 654 662 669 674 683 694 703 709 717 726 731 736 741 748 754 759 764 770 777 783 787 791 795 800 805 809 812 816 820
634 634 641 647 652 657 667 674 680 687 697 705 713 719 727 737 741 747 753 759 765 771 776 782 787 791 795 800 803 807 812 815
641 637 635 641 650 659 662 669 679 686 693 699 709 716 723 732 737 743 748 755 761 766 771 775 781 785 790 794 798 801 806 810
648 642 638 639 645 653 661 669 674 682 686 693 701 710 718 727 733 739 745 751 756 761 766 770 773 777 783 787 792 796 800 805
654 647 646 648 650 654 660 667 673 681 692 698 702 708 714 721 727 734 740 745 751 757 762 765 768 771 776 781 786 791 796 800
661 657 655 655 657 660 663 668 674 678 686 694 700 706 712 719 726 730 735 741 746 752 759 764 768 770 773 777 782 786 791 796
676 670 666 666 665 665 668 670 674 680 686 691 697 704 709 716 722 727 733 737 742 746 751 760 764 768 772 775 779 783 786 790
691 686 683 679 675 674 672 672 675 678 685 690 694 700 706 712 717 724 728 732 736 740 745 748 754 761 764 768 773 779 782 788
705 702 697 692 688 684 682 680 678 678 683 688 693 699 703 708 714 720 725 730 734 739 743 746 750 754 758 757 764 773 779 783
718 714 709 704 699 693 693 689 688 688 691 693 693 702 705 711 715 718 724 729 734 736 740 744 746 750 756 757 760 766 776 778